Flag for Norway Weather past 2 weeks in Grimstad, Norway

Now
58 °F

Cool.


Feels Like: 58 °F
Forecast: 55 / 59 °F
Wind: 3 mph from West

Location: Torungen Fyr

Current Time: Aug 31, 2015 at 3:33:18 AM

Latest Report: Aug 31, 2015 at 2:00 AM


Visibility: N/A

Pressure: 30.07 "Hg

Humidity: 90%

Dew point: 55 °F

Location of GrimstadLocation

Historic Weather in Grimstad — Graph

°F

Grimstad temperature yesterday

Maximum temperature yesterday: 63 °F (at 1:00 PM)
Minimum temperature yesterday: 56 °F (at 8:00 AM)
Average temperature yesterday: 61 °F

Past Weeks' High & Low Weather Summary

 TemperatureHumidityPressure
High67 °F (Aug 23, 8:00 PM)97% (Aug 26, 2:00 PM)30.34 "Hg (Aug 26, 2:00 PM)
Low56 °F (Aug 28, 4:00 AM)59% (Aug 28, 3:00 PM)29.54 "Hg (Aug 27, 2:00 PM)
Average63 °F82%30.03 "Hg
* Reported Aug 16 2:00 AM — Aug 31 2:00 AM, Grimstad, Weather by CustomWeather, © 2015

Note: Actual official high and low records may vary slightly from our data, if they occured in-between our weather recording intervals... More about our weather records

Advertising

Grimstad weather history for previous 24 hours

 ConditionsComfort  
Time TempWeatherWind HumidityBarometerVisibility
2:00 AM
Mon, Aug 31
58 °FCool.3 mph90%30.07 "HgN/A
1:00 AM58 °FCool.2 mph89%30.09 "HgN/A
12:00 AM60 °FCool.5 mph88%30.09 "HgN/A
11:00 PM
Sun, Aug 30
61 °FCool.7 mph87%30.10 "HgN/A
10:00 PM62 °FCool.7 mph86%30.09 "HgN/A
9:00 PM63 °FMild.8 mph85%30.09 "HgN/A
8:00 PM63 °FMild.9 mph85%30.08 "HgN/A
7:00 PM63 °FMild.12 mph84%30.08 "HgN/A
6:00 PM63 °FMild.13 mph83%30.09 "HgN/A
5:00 PM63 °FMild.13 mph80%30.10 "HgN/A
4:00 PM63 °FMild.12 mph80%30.11 "HgN/A
3:00 PM63 °FMild.10 mph77%30.11 "HgN/A
2:00 PM63 °FMild.10 mph77%30.11 "HgN/A
1:00 PM63 °FMild.8 mph77%30.11 "HgN/A
12:00 PM62 °FCool.7 mph81%30.11 "HgN/A
11:00 AM62 °FCool.3 mph80%30.11 "HgN/A
10:00 AM61 °FCool.3 mph80%30.11 "HgN/A
9:00 AM58 °FCool.3 mph88%30.10 "HgN/A
8:00 AM56 °FCool.2 mph88%30.09 "HgN/A
7:00 AM57 °FCool.2 mph88%30.08 "HgN/A
6:00 AM58 °FCool.6 mph89%30.07 "HgN/A
5:00 AM58 °FCool.3 mph91%30.07 "HgN/A
4:00 AM58 °FCool.2 mph89%30.07 "HgN/A
3:00 AM58 °FCool.2 mph89%30.07 "HgN/A
Weather by CustomWeather, © 2015

See weather overviewHow to use our weather pages